RH
8 9 9 9 9 8 8 8 7 7 8 8 7 5 4 4 4 4 3 3 3 3 3 3 3 3 3 4 4 4 3 3 4 4 4 4 4 4 4 4 4 5 7 9 11 13 16 17 19 21 22 23 24 23 23 23 23 21 17 14 13 18 28
8 9 9 9 9 8 8 8 7 7 7 8 8 6 4 4 4 4 4 3 3 3 3 3 3 3 3 3 4 4 4 4 3 4 4 4 4 4 4 4 4 4 5 6 8 10 13 15 16 18 20 22 24 25 24 23 23 23 21 18 14 12 14
8 9 9 9 9 9 9 8 8 8 7 8 8 7 5 4 4 4 4 4 3 3 3 3 3 3 3 3 4 3 4 4 3 3 4 4 4 4 4 4 4 4 5 5 6 7 9 12 14 16 17 19 21 23 25 26 24 23 23 21 18 15 12
8 9 9 9 10 9 9 9 8 8 8 8 8 8 7 5 4 4 4 4 4 4 3 3 3 3 3 3 3 3 3 4 4 4 3 4 4 4 5 4 4 4 5 5 5 5 6 8 10 12 15 16 17 19 22 25 26 25 24 23 21 19 16
9 9 9 9 10 10 9 9 9 8 8 8 8 9 9 7 4 4 4 4 4 4 3 4 3 3 3 3 3 3 3 3 4 4 4 4 4 4 4 4 5 4 4 5 5 5 4 5 7 9 11 13 15 16 18 20 23 25 25 25 23 22 20
9 9 9 10 10 10 10 10 9 9 9 9 8 8 9 8 6 4 4 4 4 4 4 3 4 3 3 3 3 3 3 3 4 4 4 4 4 4 4 4 4 5 4 4 4 5 5 4 4 5 7 9 11 13 15 16 18 21 24 25 25 24 22
9 9 9 10 10 11 10 10 10 9 9 9 8 8 9 9 8 5 4 4 4 4 4 3 4 4 3 3 3 3 3 3 4 3 4 4 4 4 4 4 4 4 5 5 4 5 5 5 5 4 4 6 7 10 13 15 16 17 19 21 23 24 24
9 9 9 10 11 11 11 10 10 10 9 9 9 9 9 9 9 6 4 4 4 4 4 3 3 4 4 4 3 3 4 3 3 4 4 4 4 4 4 4 4 4 4 5 5 5 5 5 5 5 5 4 5 6 8 11 14 15 16 17 18 21 23
9 9 9 10 11 11 11 11 11 10 10 10 9 9 9 10 10 8 5 5 4 4 4 4 4 3 4 4 4 4 4 3 4 4 4 4 4 4 4 4 4 4 4 4 5 5 5 5 4 4 4 4 4 4 5 6 9 12 13 14 15 16 18
9 9 9 10 11 12 12 11 11 11 10 10 9 9 9 10 11 9 7 5 4 4 4 4 4 4 3 4 4 4 4 3 4 3 3 4 4 4 4 5 4 4 4 4 5 5 5 5 5 4 4 4 4 4 4 4 5 6 9 11 12 14 15
9 9 9 10 11 12 12 12 11 11 11 11 10 9 9 10 11 11 8 6 5 4 4 4 4 4 4 4 4 4 4 4 4 4 4 4 4 4 4 4 5 4 4 4 4 5 5 5 5 5 5 4 4 4 4 4 4 4 5 6 8 10 12
10 9 9 10 11 12 12 12 12 11 11 11 11 10 9 10 11 12 10 7 5 5 5 4 4 4 4 4 4 4 4 4 4 4 4 4 4 4 4 4 4 4 4 5 4 4 5 5 5 5 5 5 4 4 4 4 4 4 3 4 5 6 8
10 10 10 10 11 12 12 13 12 11 11 12 11 11 10 9 11 12 11 8 6 5 5 5 4 4 4 4 4 4 4 4 4 4 4 4 4 4 4 4 4 4 4 5 5 5 4 4 4 5 5 5 5 4 4 4 4 4 4 4 4 4 5
11 10 10 10 11 12 12 13 12 11 11 12 12 12 10 10 10 12 12 10 7 5 5 5 5 5 5 4 4 4 4 4 4 4 4 4 4 4 4 4 4 4 4 4 5 5 5 5 5 4 4 4 5 5 5 4 4 4 4 4 4 4 4
11 11 11 11 11 11 12 13 13 12 12 12 13 12 11 10 10 11 12 11 9 6 5 5 5 5 5 5 4 4 4 4 4 4 4 4 4 4 4 4 4 4 4 4 5 5 5 5 5 5 5 4 4 5 5 4 4 4 4 4 4 4 4
11 11 11 12 12 12 12 13 13 12 12 13 13 13 12 11 11 11 12 11 10 8 6 5 5 5 5 5 5 4 4 4 4 4 4 4 4 4 4 4 4 4 4 4 4 4 5 5 5 5 5 5 5 5 5 4 4 4 4 4 4 4 4
11 12 12 12 12 12 12 13 14 13 12 13 13 13 13 12 11 12 12 12 10 8 7 6 5 5 5 5 5 5 5 4 4 4 4 4 4 4 4 4 4 4 4 4 4 4 4 4 5 5 5 5 5 5 5 5 5 4 4 4 5 5 4
11 12 12 12 12 12 12 13 14 13 13 13 14 14 14 13 12 12 12 12 11 9 7 6 6 5 5 5 5 5 5 5 5 5 5 5 5 5 4 4 4 5 4 4 4 4 4 4 4 4 4 5 5 5 5 5 5 5 5 4 4 4 4
11 12 12 12 13 13 13 13 14 14 13 13 14 14 14 14 13 13 13 12 11 9 8 7 6 6 5 5 5 5 5 5 5 4 5 5 5 5 5 4 5 5 5 4 4 4 4 4 4 4 4 4 4 5 5 6 6 5 5 4 4 4 4
11 12 13 13 13 13 13 13 14 14 14 13 14 15 15 15 14 14 15 14 12 10 8 7 7 6 6 5 5 5 5 5 5 5 5 5 5 5 5 5 5 5 4 4 4 4 4 4 4 4 4 4 5 5 5 5 6 5 5 4 4 4 4
11 12 13 13 13 13 13 13 14 15 14 14 14 15 15 15 15 15 15 15 13 10 8 7 7 6 6 5 5 5 5 5 5 5 4 5 5 5 6 6 5 5 4 4 5 4 4 4 4 4 4 4 4 5 5 5 5 5 5 5 5 4 4
11 12 13 14 13 13 13 13 14 14 15 14 14 15 15 16 16 15 16 16 14 11 8 7 7 7 6 6 5 5 5 5 5 5 5 5 5 5 6 6 5 5 5 5 5 4 4 4 4 4 4 4 4 4 5 5 5 5 5 5 5 5 5
11 12 13 14 14 13 13 14 14 14 15 15 15 15 15 16 16 16 17 18 16 12 9 8 7 7 7 6 5 5 5 5 5 5 5 5 5 5 6 5 6 6 5 5 5 5 5 4 4 4 4 4 5 4 5 5 5 5 5 5 5 5 5
11 12 13 15 15 14 14 14 14 14 15 15 15 15 16 16 17 17 18 19 17 13 9 8 8 7 7 6 6 6 5 5 5 5 5 5 5 5 6 6 5 5 6 6 5 5 5 4 4 5 4 4 5 4 5 5 5 5 5 5 5 5 5
11 12 13 15 15 15 14 14 14 15 15 15 16 16 16 17 17 17 18 20 19 15 10 8 8 8 8 7 6 6 6 6 6 5 5 5 5 5 6 6 6 5 6 6 6 5 5 5 4 5 5 5 5 5 5 5 5 5 5 5 5 5 5
11 12 13 15 15 15 15 14 15 15 15 15 15 16 16 17 17 18 18 21 22 18 12 9 8 8 8 7 7 6 6 6 6 6 6 6 5 5 6 6 6 6 6 6 7 6 6 5 5 5 5 5 5 5 5 5 5 5 5 5 5 5 5
11 12 13 15 16 16 15 15 15 15 16 16 15 15 16 17 18 18 18 21 24 21 14 10 8 8 8 8 7 7 6 6 6 6 6 6 6 6 6 6 6 6 6 6 6 7 7 6 5 5 5 5 5 5 5 5 5 5 5 5 6 6 6
12 12 13 15 15 16 16 16 16 16 16 16 16 16 16 17 18 19 18 21 25 23 17 12 9 9 9 8 8 7 7 7 6 6 6 6 6 6 6 6 6 6 7 6 7 7 8 7 7 6 5 5 5 5 5 5 5 5 5 5 6 6 6
12 12 14 15 15 16 16 17 16 16 16 17 17 16 16 17 18 19 19 20 25 25 20 13 10 10 9 9 9 8 7 7 7 6 6 6 6 6 6 6 6 7 7 7 7 7 8 8 8 7 6 5 5 5 5 5 5 5 5 5 6 6 6
12 12 14 15 16 16 17 18 18 17 16 17 17 17 17 17 18 19 19 20 24 27 23 16 11 11 10 10 10 9 8 8 7 7 7 6 6 7 6 6 6 7 7 7 7 8 9 9 9 8 8 7 6 5 5 6 6 5 5 6 6 6 6
12 12 13 15 16 17 17 19 19 18 17 17 18 18 18 18 19 20 19 19 23 27 26 19 13 12 12 11 11 10 9 8 8 7 7 7 6 7 7 7 7 7 7 7 7 7 8 9 10 10 9 8 7 6 6 6 6 6 6 6 6 6 6
11 12 13 15 16 17 18 19 20 20 19 18 18 19 19 19 20 20 20 19 22 27 28 22 14 12 13 13 12 11 10 9 9 8 8 7 7 7 7 7 7 7 7 8 8 8 8 8 10 10 11 10 9 8 7 6 6 6 6 6 6 6 6
11 12 13 15 17 18 19 20 21 21 21 20 20 20 20 20 21 21 20 19 21 25 28 25 17 12 13 15 14 13 11 10 9 9 8 8 8 8 8 8 7 7 7 8 8 8 8 8 9 10 10 11 11 10 9 8 7 6 7 6 6 6 6
11 12 13 15 18 19 20 21 21 22 22 22 22 22 22 22 22 22 21 20 21 24 28 27 20 13 12 14 16 15 13 11 10 10 9 9 8 8 8 8 8 8 7 7 8 9 9 8 8 8 9 11 12 12 12 11 9 7 7 7 7 6 6
12 13 14 16 19 20 21 22 22 22 23 23 24 25 24 24 24 24 23 21 22 25 28 29 24 16 12 12 15 16 15 13 11 11 10 9 9 9 8 8 8 8 8 8 7 8 9 9 8 8 8 9 11 12 13 13 12 10 8 7 7 7 6
12 13 15 17 20 21 22 22 22 23 23 25 27 26 26 25 25 25 24 23 24 27 30 31 27 19 13 12 14 17 18 16 13 12 11 10 9 9 9 9 9 9 8 8 8 8 9 9 9 9 8 8 9 11 12 13 14 13 11 9 8 7 7
Wind_Speed
51 48 46 45 43 41 40 41 40 39 39 40 41 41 43 46 49 51 53 56 58 62 65 69 72 77 81 86 91 96 101 106 111 116 121 125 129 132 136 139 142 146 151 156 160 164 166 168 169 170 170 171 171 171 171 171 171 171 170 169 170 171 172
52 50 47 46 44 42 41 41 41 40 39 39 40 41 41 43 46 49 52 54 56 59 62 65 68 72 76 81 85 91 96 100 105 110 115 120 124 128 132 135 138 141 145 150 155 159 163 166 169 170 172 172 173 174 173 173 173 173 173 172 171 170 170
53 51 49 47 45 43 42 41 41 41 40 39 38 40 41 42 43 46 49 52 54 56 59 62 64 67 72 76 80 84 89 94 99 103 108 113 119 124 128 131 134 137 141 145 149 153 158 162 166 169 171 173 173 174 175 175 175 175 174 174 172 171 169
53 51 49 47 46 44 42 41 41 41 41 40 38 38 40 42 42 43 46 49 51 54 56 59 61 64 68 72 75 79 83 88 93 97 101 106 111 117 123 128 131 134 137 141 145 149 153 156 161 165 168 171 173 174 175 176 177 176 176 175 174 173 171
53 51 50 48 46 44 43 42 41 41 41 41 40 38 39 41 42 42 44 46 48 51 54 56 59 61 64 68 71 75 78 82 87 91 96 100 105 110 116 122 127 130 133 137 141 145 148 151 155 159 163 167 170 172 174 175 176 177 177 177 176 175 173
53 51 50 48 47 45 44 42 41 41 40 41 41 39 37 39 42 42 43 44 46 48 50 53 56 59 61 64 67 71 74 78 81 85 90 95 99 104 109 115 121 126 130 133 136 141 145 147 150 153 157 161 164 168 171 173 175 176 177 177 177 177 176
53 51 49 48 47 45 44 43 42 41 41 41 42 41 38 38 40 41 42 43 44 46 48 50 53 56 59 61 64 67 71 74 77 80 84 89 94 98 103 109 115 120 125 129 132 136 141 144 146 148 151 155 158 162 165 169 172 174 176 177 177 178 177
53 51 49 47 47 45 44 44 43 41 41 41 41 42 39 37 38 41 41 42 44 45 46 47 50 53 56 58 61 64 67 70 73 76 80 83 88 93 98 103 108 113 119 124 129 133 137 141 143 145 147 150 153 156 160 164 168 171 174 175 176 177 178
53 50 49 47 46 45 44 44 43 42 41 41 41 42 41 38 37 39 41 42 43 44 45 46 47 50 53 56 58 61 64 67 70 73 76 79 83 87 92 97 102 107 112 118 124 129 133 137 140 143 145 147 150 152 155 159 162 166 169 172 174 175 176
53 51 48 47 46 45 44 44 44 42 41 41 42 41 41 40 38 38 40 41 42 43 44 45 46 48 50 53 56 58 61 64 67 70 72 75 79 83 87 92 96 101 106 111 116 122 128 133 136 139 142 144 146 148 150 153 156 159 162 166 169 172 173
53 50 48 47 45 44 44 44 44 43 41 41 42 42 41 40 39 39 39 40 41 42 43 44 45 46 48 50 53 56 58 61 64 67 69 72 75 79 83 87 91 96 100 105 110 116 121 127 132 135 138 140 142 144 146 148 149 152 155 159 162 165 167
53 50 48 47 45 43 43 43 44 43 41 40 42 43 42 40 38 39 39 40 40 40 41 43 44 45 46 48 50 53 55 58 62 65 67 70 73 76 79 83 87 91 95 100 105 110 115 120 126 131 135 137 139 141 142 143 144 146 148 151 154 157 159
53 50 48 46 44 42 42 43 44 43 41 40 41 42 43 41 39 38 38 40 41 40 40 42 43 44 45 47 48 50 53 56 59 62 65 67 70 73 76 79 83 86 90 94 98 103 109 114 119 125 129 133 135 137 138 139 140 141 143 145 147 149 151
52 50 49 47 45 42 41 42 43 42 40 40 41 42 43 42 40 38 37 38 41 41 39 39 42 43 44 45 47 48 51 53 56 59 62 65 68 70 73 76 79 82 85 89 93 97 102 107 113 118 122 126 130 132 134 136 137 138 139 140 141 143 145
52 50 49 48 46 43 40 41 43 42 40 39 40 42 43 42 41 40 38 37 38 41 40 39 40 41 42 43 45 47 49 52 54 56 59 62 65 67 70 73 76 79 82 85 88 93 97 102 106 111 115 119 123 126 129 132 134 135 135 136 137 139 141
51 49 48 47 46 44 41 41 42 42 39 39 40 41 42 42 41 41 39 37 37 39 40 39 39 40 41 42 43 45 47 50 52 54 56 59 62 64 67 70 72 75 78 81 85 89 93 97 101 105 109 113 116 119 123 126 128 130 132 133 135 136 138
50 48 47 47 46 44 41 40 42 42 40 38 39 40 41 42 41 41 40 38 37 37 38 39 39 39 40 41 42 44 45 47 50 52 54 56 59 62 65 67 68 71 75 78 82 85 89 92 96 99 103 106 109 113 116 119 122 125 128 130 131 133 135
50 47 46 46 45 43 41 40 41 42 40 38 39 40 40 41 41 41 41 39 38 37 37 37 38 39 39 39 40 42 44 45 47 50 52 54 56 59 62 63 64 68 71 75 78 81 85 88 91 94 97 100 104 106 110 113 116 120 123 125 127 129 131
49 47 45 45 44 43 41 40 41 42 41 39 38 39 40 40 40 41 41 40 38 38 37 36 37 38 38 39 39 41 42 44 45 47 49 51 54 57 59 60 62 66 69 72 74 77 80 83 86 89 92 95 98 101 104 107 112 115 118 119 121 124 126
49 46 45 44 43 42 41 40 40 41 41 39 38 38 39 39 40 40 41 40 39 38 37 36 36 36 38 38 38 39 41 43 44 45 46 48 51 54 56 58 62 65 67 68 70 73 75 78 81 83 87 90 93 96 99 103 107 111 112 113 116 118 121
48 46 44 44 43 41 41 40 39 40 41 39 38 38 38 39 39 40 40 40 39 39 38 36 36 36 37 37 37 37 39 41 43 43 44 45 48 51 53 56 60 62 63 65 67 70 71 73 75 78 81 85 88 92 94 98 102 105 106 107 110 112 115
47 45 43 43 43 41 41 40 39 39 39 39 38 37 37 38 38 39 39 39 39 39 38 37 36 36 36 37 37 37 38 40 42 42 43 43 45 48 51 54 57 58 59 62 64 66 68 70 71 73 76 79 83 86 89 92 95 98 99 101 104 106 108
45 44 43 42 42 42 41 40 39 39 38 39 38 37 37 37 37 38 38 38 38 38 38 37 37 36 36 36 36 36 37 39 40 41 41 41 43 45 49 52 54 55 56 59 61 64 66 67 68 70 71 74 78 80 83 86 89 92 93 95 98 101 103
44 43 42 41 41 41 41 40 39 39 38 38 38 37 36 36 37 37 37 38 38 38 38 37 37 36 36 36 35 36 36 38 39 40 40 40 41 42 46 49 51 52 53 56 58 61 63 64 65 66 68 70 72 75 77 81 85 87 89 91 94 96 99
43 42 41 40 41 41 41 40 39 38 38 38 37 37 36 36 36 36 36 37 37 37 37 37 36 36 36 36 35 35 35 36 38 39 39 40 40 41 43 46 49 50 51 53 55 57 59 61 62 63 65 66 68 70 73 77 81 84 86 88 90 91 94
42 41 40 40 40 40 40 41 40 38 38 38 37 36 35 35 35 35 35 36 36 36 36 37 36 36 36 36 35 34 35 35 37 38 38 39 39 39 41 43 46 48 49 50 52 54 56 58 59 61 62 63 65 67 70 73 76 78 80 82 84 86 88
41 40 39 39 40 40 40 40 40 39 38 37 37 36 35 35 35 34 34 34 35 35 36 36 36 35 35 35 35 34 34 35 36 37 38 38 39 39 39 41 43 45 47 48 50 51 53 54 56 59 60 61 63 64 66 68 71 73 75 77 78 80 83
40 39 38 38 39 39 39 40 40 39 38 37 37 36 35 34 34 34 33 34 34 34 35 35 35 35 35 35 35 34 34 34 35 36 37 38 38 38 39 39 41 43 45 46 48 49 50 52 53 56 57 59 60 62 63 64 66 68 71 72 73 75 78
39 38 37 38 39 39 39 40 40 39 38 37 37 36 35 34 34 34 33 33 33 33 34 34 35 35 34 34 34 34 34 34 34 35 36 37 37 38 38 38 39 41 43 45 46 47 49 50 51 52 54 56 58 59 60 61 62 65 66 68 69 71 74
38 38 37 37 38 39 39 39 40 39 38 37 36 35 35 34 34 34 33 33 32 32 33 33 34 34 34 33 33 34 34 34 34 34 35 36 36 37 37 37 38 39 41 43 44 46 47 48 49 50 52 54 55 56 57 58 60 61 63 64 66 68 70
37 37 37 36 37 38 38 38 39 39 38 37 36 35 34 34 34 34 33 33 32 32 32 32 32 33 33 33 32 33 33 33 33 34 34 35 35 36 36 36 36 37 39 41 43 44 46 47 48 48 49 51 52 53 54 56 57 59 60 62 63 65 67
37 37 37 36 37 37 38 38 38 38 38 37 37 36 35 34 33 34 33 33 32 31 31 31 31 32 33 33 32 32 32 33 33 33 33 34 35 35 36 36 36 36 37 39 41 43 44 45 46 47 48 49 50 51 52 53 55 57 58 60 61 63 64
38 37 37 36 36 37 37 37 37 37 37 37 36 36 35 34 34 33 33 33 32 31 31 30 30 30 31 32 32 31 31 31 32 32 33 33 34 34 35 36 36 36 36 37 39 41 43 44 45 46 46 47 48 49 49 51 53 54 56 58 60 61 62
38 38 37 36 36 36 36 36 36 36 36 36 35 35 36 35 35 34 33 33 32 32 31 31 30 30 30 30 31 31 30 30 31 31 32 32 33 34 35 36 36 36 35 35 36 38 40 42 43 44 45 46 46 47 48 49 50 52 54 56 57 59 60
38 38 37 37 36 36 35 35 35 36 35 35 35 35 35 35 35 34 34 33 33 32 32 31 31 30 30 29 30 30 30 30 30 30 31 31 31 33 34 35 36 36 35 35 35 36 37 39 41 43 43 44 45 46 46 47 48 49 51 53 55 57 58
38 38 38 37 36 35 35 34 34 35 34 34 34 34 34 34 35 34 34 34 33 32 32 31 31 31 31 30 30 29 29 29 29 29 30 30 30 31 32 34 35 35 35 35 35 35 35 37 39 40 42 42 43 44 44 45 46 48 49 51 53 54 56
Wind_Direction
314 312 310 307 304 301 298 295 292 288 282 277 272 267 262 259 256 254 252 249 246 244 242 239 236 234 233 233 233 233 233 233 233 232 232 233 233 233 234 234 233 233 234 234 235 235 235 235 234 234 234 234 235 235 234 235 236 237 236 234 233 233 233
315 313 311 308 306 303 300 297 295 292 287 281 276 271 266 261 257 255 254 252 249 246 243 241 239 236 234 233 233 233 233 233 233 233 232 232 233 233 234 234 234 234 234 234 235 235 235 235 235 235 235 234 234 235 235 235 235 236 237 237 235 234 233
315 313 311 309 306 304 301 299 297 294 291 286 280 276 271 265 260 256 254 253 251 248 246 243 241 238 236 235 234 233 233 233 233 233 233 232 232 233 233 234 234 234 234 234 234 235 235 235 235 235 235 235 234 234 235 236 236 236 236 237 237 236 234
315 313 311 309 307 305 302 299 297 296 294 290 285 279 275 271 265 259 255 253 252 250 248 245 242 240 238 237 235 234 234 234 233 233 233 233 232 232 233 234 234 234 234 234 235 235 235 235 235 235 235 235 235 235 235 235 236 236 237 237 237 238 237
315 313 311 310 308 305 303 300 298 297 295 293 289 284 278 275 270 265 260 255 252 251 250 247 245 242 240 238 237 236 235 234 234 233 233 233 233 232 232 233 233 234 234 235 235 236 236 235 235 235 235 235 235 236 235 235 236 236 237 237 237 238 238
315 313 311 309 308 306 304 301 299 297 296 294 291 287 282 277 274 270 265 260 255 252 250 249 247 244 242 239 238 237 236 235 234 233 233 233 233 233 232 232 233 233 234 234 235 236 237 237 236 236 236 236 236 236 236 236 236 236 237 237 238 238 238
315 313 311 309 308 306 304 302 300 298 297 295 293 290 285 280 276 273 268 264 259 255 252 250 248 246 244 242 239 238 237 236 235 234 233 233 233 233 233 233 232 232 233 233 234 235 236 237 237 237 237 237 236 236 236 237 237 237 237 237 237 238 238
314 312 311 309 307 306 304 302 300 298 297 296 294 292 289 283 278 275 271 267 263 259 255 251 249 247 245 243 241 240 238 237 236 236 235 234 233 233 233 233 233 233 232 233 233 234 235 237 237 237 237 237 237 237 236 236 237 237 237 237 237 237 238
313 312 310 308 307 306 304 302 300 299 298 296 294 293 291 287 281 277 273 270 265 262 258 255 251 249 247 245 243 241 240 238 236 236 236 235 234 234 234 234 234 233 233 233 233 234 235 236 237 237 238 238 238 238 237 237 237 237 237 238 238 237 237
313 311 309 308 306 306 304 302 300 299 298 297 295 293 292 290 285 279 275 271 268 264 261 258 255 252 249 246 244 242 241 240 238 236 236 236 235 234 234 234 234 234 234 233 233 234 235 236 237 238 238 238 239 239 239 238 238 237 237 238 238 238 238
312 310 309 307 306 305 304 302 300 299 298 297 295 294 292 291 288 283 277 273 270 267 263 260 257 255 252 248 245 243 242 241 239 238 236 236 236 236 235 234 234 234 234 234 233 234 234 235 236 238 238 239 239 240 240 240 240 239 239 239 239 239 239
311 309 308 306 305 305 304 302 300 299 299 297 296 294 293 291 289 285 281 276 271 268 265 262 259 256 254 251 248 245 243 241 240 239 237 236 236 236 236 235 235 234 234 234 234 234 234 235 236 237 238 239 240 240 240 241 241 241 241 240 240 240 240
310 309 307 305 304 304 304 302 300 299 299 298 296 295 294 292 290 286 283 279 275 270 266 264 261 258 256 254 251 248 245 243 241 240 238 237 237 236 236 236 236 236 235 235 235 235 235 236 236 237 238 238 239 240 241 241 241 242 242 242 242 241 241
310 308 307 305 304 303 303 302 300 299 299 298 296 295 294 293 291 288 284 281 278 274 269 265 262 259 257 255 254 251 248 245 243 241 239 238 237 237 237 237 237 237 236 236 236 236 236 236 237 237 238 239 239 240 241 241 242 242 242 242 243 242 242
309 307 306 304 303 303 303 302 300 299 299 298 296 295 294 293 292 289 286 281 278 276 273 268 264 261 258 256 254 253 251 248 245 243 241 240 238 238 238 238 237 237 237 237 237 236 237 237 237 237 238 239 239 240 241 241 242 242 243 243 243 243 243
307 306 305 303 302 302 303 302 300 300 299 298 296 295 294 293 292 291 288 284 279 277 275 271 267 263 260 257 255 254 252 250 248 245 243 242 240 239 238 238 238 238 238 237 237 237 237 237 237 237 238 239 239 240 240 241 242 243 243 243 243 243 243
306 305 304 302 301 301 302 302 301 300 300 298 296 295 294 293 293 291 289 286 282 278 275 273 270 266 262 259 257 255 253 251 250 248 246 244 242 241 240 239 238 238 238 238 238 238 238 238 238 238 238 239 239 239 240 241 241 242 243 243 243 243 243
304 303 302 301 300 300 301 302 301 301 300 299 297 295 294 293 293 291 289 287 285 281 277 274 272 269 265 261 258 256 255 253 251 249 247 246 244 242 241 240 240 240 239 239 238 238 238 238 238 238 239 239 239 239 240 240 240 241 242 242 243 243 243
303 302 301 299 299 299 300 301 301 300 300 299 298 296 294 293 293 291 290 288 286 283 280 276 273 271 267 264 260 258 256 255 252 250 248 246 245 244 243 241 240 240 240 239 239 239 239 239 239 239 239 239 239 239 239 239 240 241 241 241 242 243 243
301 300 299 298 298 298 299 300 300 300 300 299 298 296 295 294 293 291 290 289 287 285 282 279 275 272 269 266 262 260 258 256 255 252 249 247 245 245 244 242 241 240 241 241 241 240 240 240 239 239 239 239 239 239 239 239 240 241 241 241 242 242 243
299 299 298 297 297 298 298 299 299 299 299 299 298 296 295 293 292 291 290 289 288 286 284 281 278 274 271 268 264 261 259 258 256 255 252 249 246 245 245 243 242 241 241 241 242 242 241 241 240 240 240 240 240 240 240 240 240 241 242 242 242 242 243
298 297 297 296 297 297 297 297 298 298 298 298 298 296 295 293 292 291 289 289 288 287 286 283 280 276 273 270 267 262 259 258 257 256 254 251 248 246 245 244 244 243 241 241 242 242 242 242 241 240 240 240 240 240 240 240 241 242 242 242 243 243 243
296 296 295 295 295 296 296 296 297 297 298 298 298 297 295 293 292 291 289 288 288 287 286 285 282 279 275 272 269 265 262 259 258 257 255 253 251 248 246 246 245 243 242 241 241 242 242 242 241 241 240 240 240 240 241 241 241 242 242 242 242 242 243
294 294 294 294 294 294 295 296 296 297 297 297 297 296 295 293 292 291 290 288 287 287 286 285 283 281 278 275 272 269 265 262 260 259 257 255 253 250 248 247 246 244 243 242 241 241 242 242 242 241 241 241 240 240 240 240 241 241 241 241 241 242 242
293 293 293 293 293 294 294 295 295 296 296 296 296 295 294 293 292 291 290 289 288 287 286 286 284 282 280 278 274 271 268 265 263 261 259 257 255 253 250 249 248 246 244 243 242 242 242 242 242 242 241 241 241 240 240 240 240 240 240 241 241 242 242
291 291 292 292 292 292 293 294 294 295 295 295 295 294 294 293 292 291 290 289 288 287 287 286 285 283 281 279 277 274 270 267 264 262 261 259 257 255 253 251 249 248 246 245 244 243 242 241 242 242 242 241 241 240 240 240 240 241 241 241 241 242 242
290 290 291 291 291 291 292 293 293 294 294 294 294 294 293 293 292 291 291 289 288 288 288 287 286 284 282 280 278 276 273 269 266 264 262 260 259 257 255 253 251 249 248 246 245 244 243 242 242 242 242 242 241 241 241 241 241 241 241 241 241 242 242
289 289 289 290 290 291 291 292 292 293 293 293 293 294 293 293 293 292 291 290 288 288 288 287 286 285 283 281 279 277 274 271 268 265 263 261 260 258 257 255 253 251 249 248 247 246 244 243 242 242 242 242 242 242 242 242 242 242 242 241 241 241 242
288 288 288 289 289 289 290 290 291 292 292 292 292 293 293 293 293 293 292 290 289 288 288 288 287 286 284 282 281 279 276 273 270 267 264 262 261 259 258 257 255 253 250 249 248 247 246 245 243 243 242 243 242 242 242 243 243 243 243 243 242 242 242
287 287 288 287 287 288 288 288 289 290 291 291 291 292 293 293 293 293 292 291 289 288 288 288 288 287 285 283 282 280 279 276 272 269 267 264 262 261 259 257 256 255 252 250 249 248 247 246 245 243 243 243 243 243 243 243 243 243 244 243 243 243 243
287 287 287 286 286 286 287 287 288 289 290 291 291 291 292 292 293 293 293 291 290 288 288 288 288 287 286 284 282 281 280 278 275 272 269 266 264 262 260 259 257 255 254 252 250 249 248 247 247 245 244 243 243 243 243 243 243 243 243 243 244 244 243
287 287 286 285 285 285 286 286 287 288 289 290 290 291 291 291 292 292 292 291 290 289 288 288 288 288 287 285 282 281 280 278 277 274 271 268 265 263 262 260 258 256 254 253 252 250 249 248 247 247 246 245 244 243 243 243 243 243 244 244 244 244 244
288 287 286 285 284 284 284 285 285 286 287 288 289 290 291 291 292 292 292 291 290 289 288 287 287 288 287 286 284 282 280 279 277 275 272 269 266 264 262 261 259 257 255 253 252 251 250 249 248 247 247 246 245 245 244 243 243 243 243 244 244 244 244
288 287 285 284 283 283 283 283 284 285 286 287 288 289 290 291 292 292 292 292 291 290 289 288 287 287 287 286 284 282 280 279 278 276 274 270 267 264 262 261 260 259 256 254 253 252 251 249 248 248 247 246 246 246 245 244 243 243 243 243 244 245 245
287 286 284 283 282 281 281 281 282 283 284 285 286 287 289 290 291 292 292 292 292 291 291 290 290 289 289 287 285 283 281 280 279 277 275 272 268 265 262 261 261 260 259 256 255 253 252 251 250 249 248 247 247 246 246 246 245 244 243 243 244 244 245
286 285 283 282 281 280 280 280 280 281 282 283 284 286 287 288 289 290 291 292 293 293 293 293 293 293 293 292 290 287 284 282 281 279 278 275 271 267 264 262 261 260 260 259 257 255 254 253 252 251 250 249 247 247 246 246 246 245 244 244 244 244 244